contact:dominique.lefevre@mio.osupytheas.fr, maurice.libes@osupytheas.fr, didier.mallarino@osupytheas.fr
Project:EMSO http://www.emso-fr.org/EMSO-France
Depth: 2436.0 m
Title:EMSO Ligure Ouest : Data MII capteur MICROCAT
DateTime_Computer,Latitude,Longitude,Temperature,Conductivity,Pressure,DateTime_Instrument
DateTime_Computer,Latitude,Longitude,degC,S m-1,dbar,DateTime_Instrument
2019-07-29T00:01:50Z,42.805,6.029,13.2956,4.59954,2469.797,2019-7-29T02:02:09Z
2019-07-29T00:04:53Z,42.805,6.029,13.2956,4.59954,2469.797,2019-7-29T02:05:13Z
2019-07-29T00:07:56Z,42.805,6.029,13.2955,4.59954,2469.806,2019-7-29T02:08:16Z
2019-07-29T00:11:00Z,42.805,6.029,13.2958,4.59953,2469.821,2019-7-29T02:11:19Z
2019-07-29T00:14:03Z,42.805,6.029,13.2956,4.59953,2469.844,2019-7-29T02:14:22Z
2019-07-29T00:17:06Z,42.805,6.029,13.2956,4.59952,2469.83,2019-7-29T02:17:25Z
2019-07-29T00:20:09Z,42.805,6.029,13.2952,4.59953,2469.806,2019-7-29T02:20:28Z
2019-07-29T00:23:12Z,42.805,6.029,13.2953,4.59951,2469.821,2019-7-29T02:23:32Z
2019-07-29T00:26:15Z,42.805,6.029,13.2954,4.59953,2469.821,2019-7-29T02:26:35Z
2019-07-29T00:29:19Z,42.805,6.029,13.2953,4.59954,2469.83,2019-7-29T02:29:38Z
2019-07-29T00:32:22Z,42.805,6.029,13.2955,4.59954,2469.806,2019-7-29T02:32:41Z
2019-07-29T00:35:25Z,42.805,6.029,13.2954,4.59954,2469.806,2019-7-29T02:35:45Z
2019-07-29T00:38:28Z,42.805,6.029,13.2956,4.59953,2469.844,2019-7-29T02:38:48Z
2019-07-29T00:41:32Z,42.805,6.029,13.2957,4.59952,2469.783,2019-7-29T02:41:51Z
2019-07-29T00:44:35Z,42.805,6.029,13.2957,4.59953,2469.806,2019-7-29T02:44:54Z
2019-07-29T00:47:38Z,42.805,6.029,13.2957,4.59953,2469.821,2019-7-29T02:47:57Z
2019-07-29T00:50:41Z,42.805,6.029,13.2955,4.59955,2469.821,2019-7-29T02:51:01Z
2019-07-29T00:53:44Z,42.805,6.029,13.2953,4.59954,2469.83,2019-7-29T02:54:04Z
2019-07-29T00:56:48Z,42.805,6.029,13.2957,4.59952,2469.844,2019-7-29T02:57:07Z
2019-07-29T00:59:51Z,42.805,6.029,13.2954,4.59952,2469.806,2019-7-29T03:00:10Z
2019-07-29T01:02:54Z,42.805,6.029,13.2959,4.59953,2469.806,2019-7-29T03:03:13Z
2019-07-29T01:05:57Z,42.805,6.029,13.2953,4.59951,2469.844,2019-7-29T03:06:17Z
2019-07-29T01:09:00Z,42.805,6.029,13.2952,4.59952,2469.844,2019-7-29T03:09:20Z
2019-07-29T01:12:04Z,42.805,6.029,13.2956,4.59954,2469.844,2019-7-29T03:12:23Z
2019-07-29T01:15:07Z,42.805,6.029,13.2957,4.59953,2469.806,2019-7-29T03:15:26Z
2019-07-29T01:18:10Z,42.805,6.029,13.2953,4.59952,2469.806,2019-7-29T03:18:29Z
2019-07-29T01:21:13Z,42.805,6.029,13.2955,4.59954,2469.806,2019-7-29T03:21:33Z
2019-07-29T01:24:16Z,42.805,6.029,13.2956,4.59953,2469.844,2019-7-29T03:24:36Z
2019-07-29T01:27:20Z,42.805,6.029,13.2957,4.59953,2469.793,2019-7-29T03:27:39Z
2019-07-29T01:30:23Z,42.805,6.029,13.2956,4.59954,2469.867,2019-7-29T03:30:42Z
2019-07-29T01:33:26Z,42.805,6.029,13.2952,4.59954,2469.853,2019-7-29T03:33:45Z
2019-07-29T01:36:29Z,42.805,6.029,13.2956,4.59952,2469.83,2019-7-29T03:36:49Z
2019-07-29T01:39:32Z,42.805,6.029,13.2955,4.59952,2469.853,2019-7-29T03:39:52Z
2019-07-29T01:42:36Z,42.805,6.029,13.2955,4.59954,2469.853,2019-7-29T03:42:55Z
2019-07-29T01:45:39Z,42.805,6.029,13.2952,4.59953,2469.867,2019-7-29T03:45:58Z
2019-07-29T01:48:42Z,42.805,6.029,13.2955,4.59953,2469.853,2019-7-29T03:49:01Z
2019-07-29T01:51:45Z,42.805,6.029,13.2958,4.59954,2469.867,2019-7-29T03:52:05Z
2019-07-29T01:54:48Z,42.805,6.029,13.2957,4.59952,2469.83,2019-7-29T03:55:08Z
2019-07-29T01:57:52Z,42.805,6.029,13.2953,4.59953,2469.876,2019-7-29T03:58:11Z
2019-07-29T02:00:55Z,42.805,6.029,13.2957,4.59953,2469.83,2019-7-29T04:01:14Z
2019-07-29T02:03:58Z,42.805,6.029,13.2955,4.59954,2469.83,2019-7-29T04:04:17Z
2019-07-29T02:07:01Z,42.805,6.029,13.2953,4.59952,2469.853,2019-7-29T04:07:20Z
2019-07-29T02:10:04Z,42.805,6.029,13.2953,4.59953,2469.867,2019-7-29T04:10:24Z
2019-07-29T02:13:08Z,42.805,6.029,13.2954,4.59953,2469.816,2019-7-29T04:13:27Z
2019-07-29T02:16:11Z,42.805,6.029,13.2952,4.59952,2469.876,2019-7-29T04:16:30Z
2019-07-29T02:19:14Z,42.805,6.029,13.2956,4.59954,2469.867,2019-7-29T04:19:33Z
2019-07-29T02:22:17Z,42.805,6.029,13.2956,4.59954,2469.853,2019-7-29T04:22:36Z
2019-07-29T02:25:21Z,42.805,6.029,13.2958,4.59953,2469.876,2019-7-29T04:25:40Z
2019-07-29T02:28:24Z,42.805,6.029,13.2952,4.59954,2469.876,2019-7-29T04:28:43Z
2019-07-29T02:31:27Z,42.805,6.029,13.2957,4.59953,2469.853,2019-7-29T04:31:46Z
2019-07-29T02:34:30Z,42.805,6.029,13.2955,4.59953,2469.844,2019-7-29T04:34:50Z
2019-07-29T02:37:33Z,42.805,6.029,13.2957,4.59954,2469.9,2019-7-29T04:37:53Z
2019-07-29T02:40:37Z,42.805,6.029,13.2960,4.59954,2469.89,2019-7-29T04:40:56Z
2019-07-29T02:43:40Z,42.805,6.029,13.2956,4.59954,2469.853,2019-7-29T04:43:59Z
2019-07-29T02:46:43Z,42.805,6.029,13.2958,4.59956,2469.867,2019-7-29T04:47:02Z
2019-07-29T02:49:46Z,42.805,6.029,13.2957,4.59954,2469.9,2019-7-29T04:50:06Z
2019-07-29T02:52:49Z,42.805,6.029,13.2956,4.59954,2469.876,2019-7-29T04:53:09Z
2019-07-29T02:55:53Z,42.805,6.029,13.2953,4.59954,2469.853,2019-7-29T04:56:12Z
2019-07-29T02:58:56Z,42.805,6.029,13.2956,4.59954,2469.83,2019-7-29T04:59:15Z
2019-07-29T03:01:59Z,42.805,6.029,13.2955,4.59953,2469.89,2019-7-29T05:02:18Z
2019-07-29T03:05:02Z,42.805,6.029,13.2955,4.59955,2469.89,2019-7-29T05:05:22Z
2019-07-29T03:08:05Z,42.805,6.029,13.2957,4.59955,2469.9,2019-7-29T05:08:25Z
2019-07-29T03:11:09Z,42.805,6.029,13.2958,4.59954,2469.9,2019-7-29T05:11:28Z
2019-07-29T03:14:12Z,42.805,6.029,13.2953,4.59954,2469.937,2019-7-29T05:14:31Z
2019-07-29T03:17:15Z,42.805,6.029,13.2953,4.59955,2469.89,2019-7-29T05:17:34Z
2019-07-29T03:20:18Z,42.805,6.029,13.2954,4.59953,2469.923,2019-7-29T05:20:37Z
2019-07-29T03:23:21Z,42.805,6.029,13.2955,4.59953,2469.937,2019-7-29T05:23:41Z
2019-07-29T03:26:24Z,42.805,6.029,13.2953,4.59954,2469.876,2019-7-29T05:26:44Z
2019-07-29T03:29:28Z,42.805,6.029,13.2957,4.59955,2469.876,2019-7-29T05:29:47Z
2019-07-29T03:32:31Z,42.805,6.029,13.2954,4.59954,2469.876,2019-7-29T05:32:50Z
2019-07-29T03:35:34Z,42.805,6.029,13.2956,4.59953,2469.9,2019-7-29T05:35:53Z
2019-07-29T03:38:37Z,42.805,6.029,13.2953,4.59953,2469.914,2019-7-29T05:38:57Z
2019-07-29T03:41:40Z,42.805,6.029,13.2956,4.59954,2469.9,2019-7-29T05:42:00Z
2019-07-29T03:44:44Z,42.805,6.029,13.2957,4.59954,2469.9,2019-7-29T05:45:03Z
2019-07-29T03:47:47Z,42.805,6.029,13.2956,4.59956,2469.9,2019-7-29T05:48:06Z
2019-07-29T03:50:50Z,42.805,6.029,13.2954,4.59953,2469.853,2019-7-29T05:51:09Z
2019-07-29T03:53:53Z,42.805,6.029,13.2956,4.59955,2469.914,2019-7-29T05:54:13Z
2019-07-29T03:56:56Z,42.805,6.029,13.2957,4.59954,2469.89,2019-7-29T05:57:16Z
2019-07-29T04:00:00Z,42.805,6.029,13.2955,4.59954,2469.9,2019-7-29T06:00:19Z
2019-07-29T04:03:03Z,42.805,6.029,13.2954,4.59955,2469.937,2019-7-29T06:03:22Z
2019-07-29T04:06:06Z,42.805,6.029,13.2954,4.59954,2469.914,2019-7-29T06:06:25Z
2019-07-29T04:09:09Z,42.805,6.029,13.2953,4.59955,2469.9,2019-7-29T06:09:29Z
2019-07-29T04:12:12Z,42.805,6.029,13.2957,4.59954,2469.853,2019-7-29T06:12:32Z
2019-07-29T04:15:16Z,42.805,6.029,13.2954,4.59954,2469.914,2019-7-29T06:15:35Z
2019-07-29T04:18:19Z,42.805,6.029,13.2960,4.59954,2469.9,2019-7-29T06:18:38Z
2019-07-29T04:21:22Z,42.805,6.029,13.2956,4.59953,2469.9,2019-7-29T06:21:41Z
2019-07-29T04:24:25Z,42.805,6.029,13.2958,4.59953,2469.914,2019-7-29T06:24:45Z
2019-07-29T04:27:28Z,42.805,6.029,13.2958,4.59954,2469.937,2019-7-29T06:27:48Z
2019-07-29T04:30:32Z,42.805,6.029,13.2957,4.59954,2469.937,2019-7-29T06:30:51Z
2019-07-29T04:33:35Z,42.805,6.029,13.2954,4.59954,2469.9,2019-7-29T06:33:54Z
2019-07-29T04:36:38Z,42.805,6.029,13.2957,4.59953,2469.923,2019-7-29T06:36:57Z
2019-07-29T04:39:41Z,42.805,6.029,13.2957,4.59953,2469.96,2019-7-29T06:40:01Z
2019-07-29T04:42:44Z,42.805,6.029,13.2959,4.59953,2469.9,2019-7-29T06:43:04Z
2019-07-29T04:45:48Z,42.805,6.029,13.2957,4.59954,2469.937,2019-7-29T06:46:07Z
2019-07-29T04:48:51Z,42.805,6.029,13.2958,4.59954,2469.909,2019-7-29T06:49:10Z
2019-07-29T04:51:54Z,42.805,6.029,13.2955,4.59954,2469.9,2019-7-29T06:52:13Z
2019-07-29T04:54:57Z,42.805,6.029,13.2956,4.59953,2469.937,2019-7-29T06:55:16Z
2019-07-29T04:58:00Z,42.805,6.029,13.2958,4.59953,2469.876,2019-7-29T06:58:20Z
2019-07-29T05:01:04Z,42.805,6.029,13.2959,4.59952,2469.909,2019-7-29T07:01:23Z
2019-07-29T05:04:07Z,42.805,6.029,13.2959,4.59954,2469.937,2019-7-29T07:04:26Z
2019-07-29T05:07:10Z,42.805,6.029,13.2958,4.59952,2469.914,2019-7-29T07:07:29Z
2019-07-29T05:10:13Z,42.805,6.029,13.2958,4.59954,2469.947,2019-7-29T07:10:33Z
2019-07-29T05:13:16Z,42.805,6.029,13.2956,4.59954,2469.9,2019-7-29T07:13:36Z
2019-07-29T05:16:20Z,42.805,6.029,13.2955,4.59954,2469.914,2019-7-29T07:16:39Z
2019-07-29T05:19:23Z,42.805,6.029,13.2954,4.59954,2469.923,2019-7-29T07:19:42Z
2019-07-29T05:22:26Z,42.805,6.029,13.2957,4.59953,2469.947,2019-7-29T07:22:45Z
2019-07-29T05:25:29Z,42.805,6.029,13.2953,4.59953,2469.914,2019-7-29T07:25:49Z
2019-07-29T05:28:32Z,42.805,6.029,13.2955,4.59953,2469.876,2019-7-29T07:28:52Z
2019-07-29T05:31:36Z,42.805,6.029,13.2953,4.59953,2469.9,2019-7-29T07:31:55Z
2019-07-29T05:34:39Z,42.805,6.029,13.2953,4.59954,2469.923,2019-7-29T07:34:58Z
2019-07-29T05:37:42Z,42.805,6.029,13.2953,4.59954,2469.89,2019-7-29T07:38:01Z
2019-07-29T05:40:45Z,42.805,6.029,13.2954,4.59954,2469.9,2019-7-29T07:41:04Z
2019-07-29T05:43:48Z,42.805,6.029,13.2954,4.59953,2469.923,2019-7-29T07:44:08Z
2019-07-29T05:46:51Z,42.805,6.029,13.2953,4.59952,2469.876,2019-7-29T07:47:11Z
2019-07-29T05:49:55Z,42.805,6.029,13.2957,4.59952,2469.914,2019-7-29T07:50:14Z
2019-07-29T05:52:58Z,42.805,6.029,13.2954,4.59954,2469.914,2019-7-29T07:53:17Z
2019-07-29T05:56:01Z,42.805,6.029,13.2958,4.59953,2469.914,2019-7-29T07:56:20Z
2019-07-29T05:59:04Z,42.805,6.029,13.2957,4.59954,2469.9,2019-7-29T07:59:24Z
2019-07-29T06:02:07Z,42.805,6.029,13.2956,4.59952,2469.876,2019-7-29T08:02:27Z
2019-07-29T06:05:11Z,42.805,6.029,13.2955,4.59952,2469.876,2019-7-29T08:05:30Z
2019-07-29T06:08:14Z,42.805,6.029,13.2957,4.59955,2469.923,2019-7-29T08:08:33Z
2019-07-29T06:11:17Z,42.805,6.029,13.2953,4.59953,2469.89,2019-7-29T08:11:36Z
2019-07-29T06:14:20Z,42.805,6.029,13.2953,4.59954,2469.9,2019-7-29T08:14:40Z
2019-07-29T06:17:23Z,42.805,6.029,13.2953,4.59953,2469.9,2019-7-29T08:17:43Z
2019-07-29T06:28:08Z,42.805,6.029,13.2954,4.59953,2469.9,2019-7-29T08:28:28Z
2019-07-29T06:31:11Z,42.805,6.029,13.2957,4.59953,2469.876,2019-7-29T08:31:31Z
2019-07-29T06:34:15Z,42.805,6.029,13.2955,4.59952,2469.876,2019-7-29T08:34:34Z
2019-07-29T06:37:18Z,42.805,6.029,13.2954,4.59952,2469.876,2019-7-29T08:37:37Z
2019-07-29T06:40:21Z,42.805,6.029,13.2957,4.59954,2469.853,2019-7-29T08:40:40Z
2019-07-29T06:43:24Z,42.805,6.029,13.2955,4.59953,2469.853,2019-7-29T08:43:44Z
2019-07-29T06:46:27Z,42.805,6.029,13.2953,4.59951,2469.876,2019-7-29T08:46:47Z
2019-07-29T06:49:30Z,42.805,6.029,13.2954,4.59951,2469.914,2019-7-29T08:49:50Z
2019-07-29T06:52:34Z,42.805,6.029,13.2957,4.59951,2469.853,2019-7-29T08:52:53Z
2019-07-29T06:55:37Z,42.805,6.029,13.2954,4.59952,2469.876,2019-7-29T08:55:56Z
2019-07-29T06:58:40Z,42.805,6.029,13.2954,4.59952,2469.876,2019-7-29T08:58:59Z
2019-07-29T07:01:43Z,42.805,6.029,13.2956,4.59951,2469.876,2019-7-29T09:02:03Z
2019-07-29T07:04:47Z,42.805,6.029,13.2954,4.59952,2469.876,2019-7-29T09:05:06Z
2019-07-29T07:07:50Z,42.805,6.029,13.2954,4.59952,2469.867,2019-7-29T09:08:09Z
2019-07-29T07:10:53Z,42.805,6.029,13.2954,4.59953,2469.867,2019-7-29T09:11:12Z
2019-07-29T07:13:56Z,42.805,6.029,13.2955,4.59952,2469.853,2019-7-29T09:14:15Z
2019-07-29T07:16:59Z,42.805,6.029,13.2953,4.59952,2469.853,2019-7-29T09:17:19Z
2019-07-29T07:20:02Z,42.805,6.029,13.2953,4.59952,2469.867,2019-7-29T09:20:22Z
2019-07-29T07:23:06Z,42.805,6.029,13.2956,4.59951,2469.853,2019-7-29T09:23:25Z
2019-07-29T07:26:09Z,42.805,6.029,13.2953,4.59952,2469.867,2019-7-29T09:26:28Z
2019-07-29T07:29:12Z,42.805,6.029,13.2956,4.59952,2469.853,2019-7-29T09:29:31Z
2019-07-29T07:32:15Z,42.805,6.029,13.2955,4.59953,2469.867,2019-7-29T09:32:35Z
2019-07-29T07:35:18Z,42.805,6.029,13.2956,4.59951,2469.9,2019-7-29T09:35:38Z
2019-07-29T07:38:22Z,42.805,6.029,13.2953,4.59952,2469.853,2019-7-29T09:38:41Z
2019-07-29T07:41:25Z,42.805,6.029,13.2957,4.59953,2469.844,2019-7-29T09:41:44Z
2019-07-29T07:44:28Z,42.805,6.029,13.2955,4.59951,2469.867,2019-7-29T09:44:47Z
2019-07-29T07:47:31Z,42.805,6.029,13.2953,4.59952,2469.867,2019-7-29T09:47:50Z
2019-07-29T07:50:34Z,42.805,6.029,13.2956,4.59952,2469.83,2019-7-29T09:50:54Z
2019-07-29T07:53:37Z,42.805,6.029,13.2957,4.59951,2469.853,2019-7-29T09:53:57Z
2019-07-29T07:56:41Z,42.805,6.029,13.2957,4.59952,2469.867,2019-7-29T09:57:00Z
2019-07-29T07:59:44Z,42.805,6.029,13.2958,4.59952,2469.844,2019-7-29T10:00:03Z
2019-07-29T08:02:47Z,42.805,6.029,13.2956,4.59953,2469.853,2019-7-29T10:03:06Z
2019-07-29T08:05:50Z,42.805,6.029,13.2957,4.59952,2469.853,2019-7-29T10:06:10Z
2019-07-29T08:08:53Z,42.805,6.029,13.2953,4.59952,2469.844,2019-7-29T10:09:13Z
2019-07-29T08:11:56Z,42.805,6.029,13.2952,4.59952,2469.83,2019-7-29T10:12:16Z
2019-07-29T08:15:00Z,42.805,6.029,13.2954,4.59953,2469.806,2019-7-29T10:15:19Z
2019-07-29T08:18:03Z,42.805,6.029,13.2956,4.59954,2469.83,2019-7-29T10:18:22Z
2019-07-29T08:21:06Z,42.805,6.029,13.2955,4.59951,2469.853,2019-7-29T10:21:26Z
2019-07-29T08:24:09Z,42.805,6.029,13.2952,4.59952,2469.83,2019-7-29T10:24:29Z
2019-07-29T08:27:13Z,42.805,6.029,13.2954,4.59954,2469.806,2019-7-29T10:27:32Z
2019-07-29T08:30:16Z,42.805,6.029,13.2953,4.59953,2469.806,2019-7-29T10:30:35Z
2019-07-29T08:33:19Z,42.805,6.029,13.2952,4.59952,2469.867,2019-7-29T10:33:38Z
2019-07-29T08:36:22Z,42.805,6.029,13.2955,4.59952,2469.806,2019-7-29T10:36:42Z
2019-07-29T08:39:25Z,42.805,6.029,13.2952,4.59953,2469.83,2019-7-29T10:39:45Z
2019-07-29T08:42:29Z,42.805,6.029,13.2953,4.59953,2469.83,2019-7-29T10:42:48Z
2019-07-29T08:45:32Z,42.805,6.029,13.2953,4.59954,2469.797,2019-7-29T10:45:51Z
2019-07-29T08:48:35Z,42.805,6.029,13.2954,4.59952,2469.821,2019-7-29T10:48:54Z
2019-07-29T08:51:38Z,42.805,6.029,13.2957,4.59952,2469.83,2019-7-29T10:51:58Z
2019-07-29T08:54:41Z,42.805,6.029,13.2956,4.59953,2469.783,2019-7-29T10:55:01Z
2019-07-29T08:57:44Z,42.805,6.029,13.2953,4.59954,2469.821,2019-7-29T10:58:04Z
2019-07-29T09:00:48Z,42.805,6.029,13.2953,4.59953,2469.783,2019-7-29T11:01:07Z
2019-07-29T09:03:51Z,42.805,6.029,13.2953,4.59951,2469.83,2019-7-29T11:04:10Z
2019-07-29T09:06:54Z,42.805,6.029,13.2955,4.59954,2469.783,2019-7-29T11:07:13Z
2019-07-29T09:09:57Z,42.805,6.029,13.2953,4.59952,2469.83,2019-7-29T11:10:17Z
2019-07-29T09:13:00Z,42.805,6.029,13.2953,4.59953,2469.783,2019-7-29T11:13:20Z
2019-07-29T09:16:04Z,42.805,6.029,13.2953,4.59951,2469.806,2019-7-29T11:16:23Z
2019-07-29T09:19:07Z,42.805,6.029,13.2953,4.59951,2469.783,2019-7-29T11:19:26Z
2019-07-29T09:22:10Z,42.805,6.029,13.2956,4.59953,2469.783,2019-7-29T11:22:29Z
2019-07-29T09:25:13Z,42.805,6.029,13.2953,4.59952,2469.806,2019-7-29T11:25:33Z
2019-07-29T09:28:16Z,42.805,6.029,13.2951,4.59954,2469.769,2019-7-29T11:28:36Z
2019-07-29T09:31:20Z,42.805,6.029,13.2952,4.59954,2469.797,2019-7-29T11:31:39Z
2019-07-29T09:34:23Z,42.805,6.029,13.2953,4.59954,2469.797,2019-7-29T11:34:42Z
2019-07-29T09:37:26Z,42.805,6.029,13.2954,4.59954,2469.76,2019-7-29T11:37:45Z
2019-07-29T09:40:29Z,42.805,6.029,13.2952,4.59951,2469.83,2019-7-29T11:40:49Z
2019-07-29T09:43:32Z,42.805,6.029,13.2956,4.59952,2469.76,2019-7-29T11:43:52Z
2019-07-29T09:46:36Z,42.805,6.029,13.2958,4.59954,2469.797,2019-7-29T11:46:55Z
2019-07-29T09:49:39Z,42.805,6.029,13.2957,4.59956,2469.821,2019-7-29T11:49:58Z
2019-07-29T09:52:42Z,42.805,6.029,13.2955,4.59952,2469.783,2019-7-29T11:53:01Z
2019-07-29T09:55:45Z,42.805,6.029,13.2952,4.59954,2469.783,2019-7-29T11:56:05Z
2019-07-29T09:58:48Z,42.805,6.029,13.2955,4.59955,2469.821,2019-7-29T11:59:08Z
2019-07-29T10:01:52Z,42.805,6.029,13.2957,4.59953,2469.773,2019-7-29T12:02:11Z
2019-07-29T10:04:55Z,42.805,6.029,13.2953,4.59954,2469.797,2019-7-29T12:05:14Z
2019-07-29T10:07:58Z,42.805,6.029,13.2954,4.59954,2469.783,2019-7-29T12:08:17Z
2019-07-29T10:11:01Z,42.805,6.029,13.2956,4.59952,2469.806,2019-7-29T12:11:21Z
2019-07-29T10:14:04Z,42.805,6.029,13.2957,4.59953,2469.797,2019-7-29T12:14:24Z
2019-07-29T10:17:07Z,42.805,6.029,13.2956,4.59953,2469.737,2019-7-29T12:17:27Z
2019-07-29T10:20:11Z,42.805,6.029,13.2953,4.59953,2469.797,2019-7-29T12:20:30Z
2019-07-29T10:23:14Z,42.805,6.029,13.2953,4.59954,2469.821,2019-7-29T12:23:33Z
2019-07-29T10:26:17Z,42.805,6.029,13.2952,4.59953,2469.773,2019-7-29T12:26:37Z
2019-07-29T10:29:20Z,42.805,6.029,13.2957,4.59953,2469.783,2019-7-29T12:29:40Z
2019-07-29T10:32:24Z,42.805,6.029,13.2958,4.59952,2469.76,2019-7-29T12:32:43Z
2019-07-29T10:35:27Z,42.805,6.029,13.2956,4.59952,2469.76,2019-7-29T12:35:46Z
2019-07-29T10:38:30Z,42.805,6.029,13.2958,4.59952,2469.783,2019-7-29T12:38:49Z
2019-07-29T10:41:33Z,42.805,6.029,13.2952,4.59953,2469.76,2019-7-29T12:41:53Z
2019-07-29T10:44:37Z,42.805,6.029,13.2953,4.59953,2469.75,2019-7-29T12:44:56Z
2019-07-29T10:47:40Z,42.805,6.029,13.2955,4.59956,2469.783,2019-7-29T12:47:59Z
2019-07-29T10:50:43Z,42.805,6.029,13.2953,4.59953,2469.797,2019-7-29T12:51:02Z
2019-07-29T10:53:47Z,42.805,6.029,13.2953,4.59953,2469.76,2019-7-29T12:54:06Z
2019-07-29T10:56:50Z,42.805,6.029,13.2951,4.59953,2469.773,2019-7-29T12:57:09Z
2019-07-29T10:59:53Z,42.805,6.029,13.2953,4.59952,2469.783,2019-7-29T13:00:12Z
2019-07-29T11:02:56Z,42.805,6.029,13.2957,4.59953,2469.76,2019-7-29T13:03:16Z
2019-07-29T11:05:59Z,42.805,6.029,13.2952,4.59954,2469.76,2019-7-29T13:06:19Z
2019-07-29T11:09:03Z,42.805,6.029,13.2958,4.59953,2469.773,2019-7-29T13:09:22Z
2019-07-29T11:12:06Z,42.805,6.029,13.2953,4.59953,2469.821,2019-7-29T13:12:25Z
2019-07-29T11:15:09Z,42.805,6.029,13.2955,4.59952,2469.76,2019-7-29T13:15:28Z
2019-07-29T11:18:12Z,42.805,6.029,13.2952,4.59953,2469.737,2019-7-29T13:18:32Z
2019-07-29T11:21:15Z,42.805,6.029,13.2957,4.59956,2469.821,2019-7-29T13:21:35Z
2019-07-29T11:24:19Z,42.805,6.029,13.2958,4.59954,2469.773,2019-7-29T13:24:38Z
2019-07-29T11:27:22Z,42.805,6.029,13.2957,4.59955,2469.76,2019-7-29T13:27:41Z
2019-07-29T11:30:25Z,42.805,6.029,13.2952,4.59955,2469.773,2019-7-29T13:30:44Z
2019-07-29T11:33:28Z,42.805,6.029,13.2956,4.59955,2469.76,2019-7-29T13:33:48Z
2019-07-29T11:36:31Z,42.805,6.029,13.2952,4.59955,2469.806,2019-7-29T13:36:51Z
2019-07-29T11:39:35Z,42.805,6.029,13.2958,4.59954,2469.76,2019-7-29T13:39:54Z
2019-07-29T11:42:38Z,42.805,6.029,13.2952,4.59954,2469.783,2019-7-29T13:42:57Z
2019-07-29T11:45:41Z,42.805,6.029,13.2956,4.59953,2469.797,2019-7-29T13:46:00Z
2019-07-29T11:48:44Z,42.805,6.029,13.2958,4.59959,2469.797,2019-7-29T13:49:04Z
2019-07-29T11:51:47Z,42.805,6.029,13.2952,4.59954,2469.773,2019-7-29T13:52:07Z
2019-07-29T11:54:51Z,42.805,6.029,13.2955,4.59953,2469.797,2019-7-29T13:55:10Z
2019-07-29T11:57:54Z,42.805,6.029,13.2960,4.59954,2469.797,2019-7-29T13:58:13Z
2019-07-29T12:00:57Z,42.805,6.029,13.2953,4.59954,2469.783,2019-7-29T14:01:17Z
2019-07-29T12:04:00Z,42.805,6.029,13.2953,4.59954,2469.783,2019-7-29T14:04:20Z
2019-07-29T12:07:04Z,42.805,6.029,13.2953,4.59955,2469.76,2019-7-29T14:07:23Z
2019-07-29T12:10:07Z,42.805,6.029,13.2953,4.59955,2469.821,2019-7-29T14:10:26Z
2019-07-29T12:13:10Z,42.805,6.029,13.2954,4.59956,2469.797,2019-7-29T14:13:29Z
2019-07-29T12:16:13Z,42.805,6.029,13.2957,4.59954,2469.821,2019-7-29T14:16:33Z
2019-07-29T12:19:16Z,42.805,6.029,13.2957,4.59953,2469.783,2019-7-29T14:19:36Z
2019-07-29T12:22:20Z,42.805,6.029,13.2956,4.59954,2469.773,2019-7-29T14:22:39Z
2019-07-29T12:25:23Z,42.805,6.029,13.2955,4.59957,2469.76,2019-7-29T14:25:42Z
2019-07-29T12:28:26Z,42.805,6.029,13.2957,4.59956,2469.797,2019-7-29T14:28:46Z
2019-07-29T12:31:29Z,42.805,6.029,13.2957,4.59955,2469.806,2019-7-29T14:31:49Z
2019-07-29T12:34:33Z,42.805,6.029,13.2953,4.59956,2469.783,2019-7-29T14:34:52Z
2019-07-29T12:37:36Z,42.805,6.029,13.2953,4.59954,2469.783,2019-7-29T14:37:55Z
2019-07-29T12:40:39Z,42.805,6.029,13.2956,4.59956,2469.783,2019-7-29T14:40:59Z
2019-07-29T12:43:42Z,42.805,6.029,13.2953,4.59957,2469.806,2019-7-29T14:44:02Z
2019-07-29T12:46:46Z,42.805,6.029,13.2953,4.59956,2469.806,2019-7-29T14:47:05Z
2019-07-29T12:49:49Z,42.805,6.029,13.2956,4.59955,2469.783,2019-7-29T14:50:08Z
2019-07-29T12:52:52Z,42.805,6.029,13.2953,4.59956,2469.797,2019-7-29T14:53:12Z
2019-07-29T12:55:55Z,42.805,6.029,13.2956,4.59956,2469.821,2019-7-29T14:56:15Z
2019-07-29T12:58:58Z,42.805,6.029,13.2957,4.59958,2469.783,2019-7-29T14:59:18Z
2019-07-29T13:02:02Z,42.805,6.029,13.2958,4.59956,2469.783,2019-7-29T15:02:21Z
2019-07-29T13:05:05Z,42.805,6.029,13.2957,4.59956,2469.806,2019-7-29T15:05:24Z
2019-07-29T13:08:08Z,42.805,6.029,13.2959,4.59954,2469.821,2019-7-29T15:08:28Z
2019-07-29T13:11:11Z,42.805,6.029,13.2956,4.59954,2469.806,2019-7-29T15:11:31Z
2019-07-29T13:14:15Z,42.805,6.029,13.2957,4.59955,2469.783,2019-7-29T15:14:34Z
2019-07-29T13:17:18Z,42.805,6.029,13.2955,4.59955,2469.806,2019-7-29T15:17:37Z
2019-07-29T13:20:21Z,42.805,6.029,13.2956,4.59956,2469.806,2019-7-29T15:20:41Z
2019-07-29T13:23:24Z,42.805,6.029,13.2958,4.59956,2469.83,2019-7-29T15:23:44Z
2019-07-29T13:26:27Z,42.805,6.029,13.2953,4.59955,2469.83,2019-7-29T15:26:47Z
2019-07-29T13:29:31Z,42.805,6.029,13.2957,4.59954,2469.821,2019-7-29T15:29:50Z
2019-07-29T13:32:34Z,42.805,6.029,13.2957,4.59954,2469.783,2019-7-29T15:32:53Z
2019-07-29T13:35:37Z,42.805,6.029,13.2955,4.59955,2469.83,2019-7-29T15:35:57Z
2019-07-29T13:38:40Z,42.805,6.029,13.2958,4.59954,2469.806,2019-7-29T15:39:00Z
2019-07-29T13:41:44Z,42.805,6.029,13.2953,4.59954,2469.83,2019-7-29T15:42:03Z
2019-07-29T13:44:47Z,42.805,6.029,13.2955,4.59956,2469.83,2019-7-29T15:45:06Z
2019-07-29T13:47:50Z,42.805,6.029,13.2959,4.59956,2469.806,2019-7-29T15:48:09Z
2019-07-29T13:50:53Z,42.805,6.029,13.2957,4.59956,2469.83,2019-7-29T15:51:13Z
2019-07-29T13:53:56Z,42.805,6.029,13.2957,4.59955,2469.83,2019-7-29T15:54:16Z
2019-07-29T13:57:00Z,42.805,6.029,13.2952,4.59954,2469.867,2019-7-29T15:57:19Z
2019-07-29T14:00:03Z,42.805,6.029,13.2957,4.59957,2469.806,2019-7-29T16:00:22Z
2019-07-29T14:03:06Z,42.805,6.029,13.2957,4.59956,2469.867,2019-7-29T16:03:26Z
2019-07-29T14:06:09Z,42.805,6.029,13.2960,4.59956,2469.844,2019-7-29T16:06:29Z
2019-07-29T14:09:13Z,42.805,6.029,13.2955,4.59956,2469.867,2019-7-29T16:09:32Z
2019-07-29T14:12:16Z,42.805,6.029,13.2957,4.59955,2469.844,2019-7-29T16:12:35Z
2019-07-29T14:15:19Z,42.805,6.029,13.2956,4.59955,2469.821,2019-7-29T16:15:38Z
2019-07-29T14:18:22Z,42.805,6.029,13.2960,4.59954,2469.83,2019-7-29T16:18:42Z
2019-07-29T14:21:25Z,42.805,6.029,13.2956,4.59956,2469.876,2019-7-29T16:21:45Z
2019-07-29T14:24:29Z,42.805,6.029,13.2959,4.59957,2469.876,2019-7-29T16:24:48Z
2019-07-29T14:27:32Z,42.805,6.029,13.2958,4.59955,2469.844,2019-7-29T16:27:51Z
2019-07-29T14:30:35Z,42.805,6.029,13.2960,4.59958,2469.914,2019-7-29T16:30:55Z
2019-07-29T14:33:39Z,42.805,6.029,13.2957,4.59959,2469.89,2019-7-29T16:33:58Z
2019-07-29T14:36:42Z,42.805,6.029,13.2958,4.59956,2469.876,2019-7-29T16:37:01Z
2019-07-29T14:39:45Z,42.805,6.029,13.2957,4.59957,2469.9,2019-7-29T16:40:04Z
2019-07-29T14:42:48Z,42.805,6.029,13.2956,4.59958,2469.876,2019-7-29T16:43:08Z
2019-07-29T14:45:51Z,42.805,6.029,13.2958,4.59956,2469.9,2019-7-29T16:46:11Z
2019-07-29T14:48:55Z,42.805,6.029,13.2959,4.59956,2469.83,2019-7-29T16:49:14Z
2019-07-29T14:51:58Z,42.805,6.029,13.2957,4.59957,2469.89,2019-7-29T16:52:17Z
2019-07-29T14:55:01Z,42.805,6.029,13.2958,4.59958,2469.876,2019-7-29T16:55:20Z
2019-07-29T14:58:04Z,42.805,6.029,13.2957,4.59958,2469.89,2019-7-29T16:58:24Z
2019-07-29T15:01:07Z,42.805,6.029,13.2960,4.59957,2469.876,2019-7-29T17:01:27Z
2019-07-29T15:04:11Z,42.805,6.029,13.2959,4.59957,2469.9,2019-7-29T17:04:30Z
2019-07-29T15:07:14Z,42.805,6.029,13.2958,4.59957,2469.89,2019-7-29T17:07:33Z
2019-07-29T15:10:17Z,42.805,6.029,13.2961,4.59957,2469.914,2019-7-29T17:10:36Z
2019-07-29T15:13:20Z,42.805,6.029,13.2960,4.59961,2469.89,2019-7-29T17:13:40Z
2019-07-29T15:16:24Z,42.805,6.029,13.2958,4.59958,2469.9,2019-7-29T17:16:43Z
2019-07-29T15:19:27Z,42.805,6.029,13.2959,4.59960,2469.923,2019-7-29T17:19:46Z
2019-07-29T15:22:30Z,42.805,6.029,13.2961,4.59958,2469.9,2019-7-29T17:22:49Z